TimeEDT,TemperatureF,Dew PointF,Humidity,Sea Level PressureIn,VisibilityMPH,Wind Direction,Wind SpeedMPH,Gust SpeedMPH,PrecipitationIn,Events,Conditions,WindDirDegrees,DateUTC
12:53 AM,75.0,73.0,94,30.19,10.0,South,6.9,-,N/A,,Clear,190,2013-06-24 04:53:00
1:53 AM,75.9,73.0,91,30.18,10.0,South,6.9,-,N/A,,Clear,180,2013-06-24 05:53:00
2:53 AM,75.0,73.0,94,30.19,10.0,SSW,3.5,-,N/A,,Clear,200,2013-06-24 06:53:00
3:48 AM,75.2,73.4,94,30.20,10.0,Calm,Calm,-,N/A,,Mostly Cloudy,0,2013-06-24 07:48:00
3:53 AM,73.9,72.0,93,30.20,10.0,Calm,Calm,-,N/A,,Mostly Cloudy,0,2013-06-24 07:53:00
4:53 AM,73.0,72.0,96,30.21,8.0,NNE,4.6,-,N/A,,Overcast,30,2013-06-24 08:53:00
5:53 AM,73.0,72.0,96,30.21,9.0,Calm,Calm,-,0.01,,Overcast,0,2013-06-24 09:53:00
6:39 AM,73.4,73.4,100,30.21,9.0,Calm,Calm,-,N/A,,Overcast,0,2013-06-24 10:39:00
6:53 AM,73.9,73.0,97,30.21,10.0,Variable,6.9,31.1,N/A,,Scattered Clouds,0,2013-06-24 10:53:00
7:53 AM,79.0,75.0,88,30.22,7.0,South,4.6,-,N/A,,Mostly Cloudy,190,2013-06-24 11:53:00
8:09 AM,78.8,75.2,89,30.23,10.0,SSW,6.9,-,0.00,,Overcast,200,2013-06-24 12:09:00
8:32 AM,73.4,71.6,94,30.23,4.0,NW,3.5,-,0.02,Rain,Rain,320,2013-06-24 12:32:00
8:44 AM,75.2,71.6,89,30.23,10.0,Calm,Calm,-,0.02,Thunderstorm,Thunderstorm,0,2013-06-24 12:44:00
8:53 AM,75.0,72.0,90,30.24,3.0,WNW,6.9,-,0.02,Rain-Thunderstorm,Light Thunderstorms and Rain,290,2013-06-24 12:53:00
8:56 AM,75.2,71.6,89,30.24,1.8,WNW,6.9,-,0.03,Rain-Thunderstorm,Thunderstorms and Rain,290,2013-06-24 12:56:00
8:59 AM,75.2,71.6,89,30.24,0.8,Variable,4.6,-,0.05,Rain-Thunderstorm,Heavy Thunderstorms and Rain,0,2013-06-24 12:59:00
9:11 AM,73.4,71.6,94,30.24,1.5,South,3.5,-,0.32,Rain-Thunderstorm,Heavy Thunderstorms and Rain,190,2013-06-24 13:11:00
9:15 AM,73.4,71.6,94,30.24,3.0,South,4.6,-,0.32,Rain-Thunderstorm,Light Thunderstorms and Rain,180,2013-06-24 13:15:00
9:53 AM,75.0,71.1,87,30.23,8.0,WSW,4.6,-,0.33,Rain-Thunderstorm,Light Thunderstorms and Rain,240,2013-06-24 13:53:00
10:00 AM,75.2,71.6,89,30.23,10.0,Calm,Calm,-,0.00,Rain,Light Rain,0,2013-06-24 14:00:00
10:34 AM,75.2,69.8,83,30.24,10.0,SE,3.5,-,0.00,Rain,Light Rain,140,2013-06-24 14:34:00
10:44 AM,75.2,71.6,89,30.25,10.0,SE,5.8,-,0.00,Rain,Light Rain,130,2013-06-24 14:44:00
10:53 AM,75.0,72.0,90,30.25,10.0,ESE,3.5,-,0.00,Rain,Light Rain,120,2013-06-24 14:53:00
11:00 AM,75.2,71.6,89,30.24,10.0,Calm,Calm,-,0.00,Rain,Light Rain,0,2013-06-24 15:00:00
11:16 AM,75.2,71.6,89,30.25,10.0,SSW,4.6,-,0.01,Rain-Thunderstorm,Light Thunderstorms and Rain,210,2013-06-24 15:16:00
11:22 AM,75.2,71.6,89,30.24,1.5,SSW,8.1,-,0.03,Rain-Thunderstorm,Thunderstorms and Rain,200,2013-06-24 15:22:00
11:29 AM,75.2,73.4,94,30.24,1.2,South,5.8,-,0.14,Rain-Thunderstorm,Thunderstorms and Rain,180,2013-06-24 15:29:00
11:32 AM,75.2,73.4,94,30.24,2.0,South,5.8,-,0.14,Rain-Thunderstorm,Light Thunderstorms and Rain,180,2013-06-24 15:32:00
11:39 AM,75.2,73.4,94,30.24,9.0,South,4.6,-,0.14,Rain-Thunderstorm,Light Thunderstorms and Rain,170,2013-06-24 15:39:00
11:49 AM,75.2,73.4,94,30.24,10.0,South,5.8,-,0.14,,Mostly Cloudy,170,2013-06-24 15:49:00
11:53 AM,75.0,73.0,94,30.24,10.0,SSE,5.8,-,0.14,,Mostly Cloudy,160,2013-06-24 15:53:00
12:53 PM,77.0,73.9,90,30.24,10.0,SSW,6.9,-,0.01,,Overcast,200,2013-06-24 16:53:00
1:53 PM,82.0,75.0,79,30.20,10.0,South,10.4,-,N/A,,Clear,190,2013-06-24 17:53:00
2:34 PM,84.2,75.2,74,30.19,10.0,South,8.1,-,N/A,,Mostly Cloudy,190,2013-06-24 18:34:00
2:46 PM,82.4,73.4,74,30.18,10.0,SSW,13.8,-,N/A,,Partly Cloudy,200,2013-06-24 18:46:00
2:53 PM,84.0,73.9,72,30.17,10.0,SSW,9.2,-,N/A,,Scattered Clouds,210,2013-06-24 18:53:00
3:53 PM,82.0,73.0,74,30.19,10.0,SW,9.2,-,N/A,,Mostly Cloudy,230,2013-06-24 19:53:00
4:10 PM,75.2,69.8,83,30.19,10.0,West,12.7,24.2,0.00,Rain,Light Rain,280,2013-06-24 20:10:00
4:22 PM,75.2,71.6,89,30.19,2.5,West,5.8,-,0.00,Rain,Light Rain,270,2013-06-24 20:22:00
4:24 PM,75.2,71.6,89,30.19,1.8,West,3.5,-,0.01,Rain,Heavy Rain,260,2013-06-24 20:24:00
4:31 PM,75.2,71.6,89,30.19,2.0,WSW,12.7,-,0.07,Rain,Light Rain,250,2013-06-24 20:31:00
4:38 PM,73.4,69.8,88,30.18,10.0,WSW,10.4,-,0.07,Rain,Light Rain,240,2013-06-24 20:38:00
4:53 PM,73.9,70.0,87,30.17,10.0,Calm,Calm,-,0.07,,Scattered Clouds,0,2013-06-24 20:53:00
5:53 PM,75.9,71.1,85,30.16,10.0,Calm,Calm,-,N/A,,Clear,0,2013-06-24 21:53:00
6:53 PM,77.0,72.0,84,30.16,10.0,Calm,Calm,-,N/A,,Clear,0,2013-06-24 22:53:00
7:53 PM,77.0,73.0,88,30.14,10.0,SSW,6.9,-,N/A,,Clear,200,2013-06-24 23:53:00
8:53 PM,77.0,73.0,88,30.14,10.0,SSW,9.2,-,N/A,,Clear,200,2013-06-25 00:53:00
9:53 PM,77.0,73.0,88,30.15,10.0,South,5.8,-,N/A,,Clear,190,2013-06-25 01:53:00
10:53 PM,77.0,73.0,88,30.16,10.0,SSW,5.8,-,N/A,,Clear,200,2013-06-25 02:53:00
11:53 PM,75.9,73.0,91,30.17,10.0,SW,3.5,-,N/A,,Clear,220,2013-06-25 03:53:00